Weather History for COCHIN INTL, India

Change the Weather History Date:

Saturday, February 1, 2014

  Actual Average Record
Temperature  
Mean Temperature 80 °F -  
Max Temperature 95 °F - - ()
Min Temperature 66 °F - - ()
Cooling Degree Days 16    
Growing Degree Days 30 (Base 50)    
Moisture  
Dew Point 66 °F    
Average Humidity 69    
Maximum Humidity 94    
Minimum Humidity 39    
Precipitation  
Precipitation 0.00 in - - ()
Sea Level Pressure  
Sea Level Pressure 29.85 in    
Wind  
Wind Speed 1 mph ()    
Max Wind Speed 12 mph    
Max Gust Speed -    
Visibility 2.8 miles    
Events      
T = Trace of Precipitation, MM = Missing Value Source: Averaged Metar Reports

Daily Weather History Graph

Daily Weather History Graph

Search for Another Location

Airport:

Trip Planner

Search our weather history database for the weather conditions in past years. The results will help you decide how hot, cold, wet, or windy it might be!

Date:

Astronomy

Feb. 01, 2014 Rise Set
Actual Time 6:47 AM IST 6:28 PM IST
Civil Twilight 6:25 AM IST 6:50 PM IST
Nautical Twilight 5:59 AM IST 7:16 PM IST
Astronomical Twilight 5:34 AM IST 7:41 PM IST
Moon 7:43 AM IST (2/1) 8:00 PM IST (2/1)
Length of Visible Light 12h 25m
Length of Day
11h 41m
Waxing Crescent, 3% of the Moon is Illuminated
Feb 1
Waxing Crescent
Feb 7
First Quarter
Feb 15
Full
Feb 22
Last Quarter
Mar 1
New

Hourly Weather History & Observations

Time (IST) Temp. Heat Index Dew Point Humidity Pressure Visibility Wind Dir Wind Speed Gust Speed Precip Events Conditions
12:30 AM 71.6 °F - 66.2 °F 83% 29.86 in 3.1 mi Calm Calm - N/A   Haze
1:30 AM 69.8 °F - 66.2 °F 88% 29.86 in 3.1 mi Calm Calm - N/A   Haze
2:30 AM 69.8 °F - 66.2 °F 88% 29.83 in 1.9 mi Calm Calm - N/A   Haze
4:30 AM 68.0 °F - 66.2 °F 94% 29.83 in 3.1 mi Calm Calm - N/A   Haze
5:30 AM 66.2 °F - 62.6 °F 88% 29.86 in 3.1 mi Calm Calm - N/A   Haze
7:30 AM 68.0 °F - 64.4 °F 88% 29.92 in 1.9 mi Calm Calm - N/A   Haze
8:30 AM 71.6 °F - 62.6 °F 73% 29.95 in 1.9 mi Calm Calm - N/A   Haze
11:30 AM 86.0 °F 87.3 °F 64.4 °F 48% 29.92 in 2.5 mi SSE 5.8 mph - N/A   Haze
12:30 PM 89.6 °F 91.1 °F 64.4 °F 43% 29.86 in 2.5 mi East 2.3 mph - N/A   Haze
2:30 PM 93.2 °F 96.2 °F 66.2 °F 41% 29.80 in 3.1 mi South 3.5 mph - N/A   Haze
3:30 PM 95.0 °F 98.5 °F 66.2 °F 39% 29.77 in 3.1 mi West 11.5 mph - N/A   Haze
4:30 PM 91.4 °F 95.4 °F 68.0 °F 46% 29.77 in 3.1 mi West 6.9 mph - N/A   Haze
5:30 PM 87.8 °F 91.4 °F 68.0 °F 52% 29.80 in 3.1 mi West 3.5 mph - N/A   Haze
6:30 PM 84.2 °F 87.3 °F 68.0 °F 58% 29.80 in 3.1 mi Calm Calm - N/A   Haze
7:30 PM 80.6 °F 83.9 °F 69.8 °F 70% 29.83 in 3.1 mi Calm Calm - N/A   Haze
8:30 PM 77.0 °F - 68.0 °F 74% 29.86 in 3.1 mi Calm Calm - N/A   Haze
9:30 PM 75.2 °F - 68.0 °F 78% 29.89 in 3.1 mi Calm Calm - N/A   Haze
10:30 PM 75.2 °F - 68.0 °F 78% 29.89 in 3.1 mi Calm Calm - N/A   Haze
11:30 PM 73.4 °F - 68.0 °F 83% 29.89 in 3.1 mi Calm Calm - N/A   Haze